Weather observations for the past three days for
Shungnak Airport
| Date | Time (akdt) | Wind (kph) | Vis. (km) | Weather | Sky Cond. | Temperature (ºC) | Relative Humidity | Wind Chill (°C) | Heat Index (°C) | Pressure | Precipitation (cm) | ||||||
|---|---|---|---|---|---|---|---|---|---|---|---|---|---|---|---|---|---|
| Air | Dwpt | 6 hour | altimeter (cm) | sea level (mb) | 1 hr | 3 hr | 6 hr | ||||||||||
| Max. | Min. | ||||||||||||||||
| 31 | 19:56 | W 11 | 16.09 | Partly Cloudy | SCT029 | 0 | 0 | 0% | 75.87 | 0.0 | |||||||
| 31 | 18:56 | W 13 | 16.09 | A Few Clouds | FEW120 | 0 | 0 | 0% | 75.9 | 0.0 | |||||||
| 31 | 17:56 | Vrbl 11 | 16.09 | Fair | CLR | 0 | 0 | 0% | 75.9 | 0.0 | |||||||
| 31 | 16:56 | SW 15 | 16.09 | Mostly Cloudy | BKN075 | 0 | 0 | 0% | 75.9 | 0.0 | |||||||
| 31 | 15:56 | W 17 | 16.09 | Partly Cloudy | SCT041 | 0 | 0 | 0% | 75.9 | 0.0 | |||||||
| 31 | 14:56 | W 13 G 26 | 16.09 | A Few Clouds | FEW037 | 0 | 0 | 0% | 75.9 | 0.0 | |||||||
| 31 | 13:56 | W 15 | 16.09 | Fair | CLR | 0 | 0 | 0% | 75.92 | 0.0 | |||||||
| 31 | 12:56 | Vrbl 11 | 16.09 | Fair | CLR | 0 | 0 | 0% | 75.92 | 0.0 | |||||||
| 31 | 11:56 | W 17 | 16.09 | Fair | CLR | 0 | 0 | 0% | 75.9 | 0.0 | |||||||
| 31 | 10:56 | W 15 | 16.09 | Fair | CLR | 0 | 0 | 0% | 75.9 | 0.0 | |||||||
| 31 | 09:56 | W 17 | 16.09 | Fair | CLR | 0 | 0 | 0% | 75.87 | 0.0 | |||||||
| 31 | 08:56 | W 17 | 16.09 | Fair | CLR | 0 | 0 | 0% | 75.84 | 0.0 | |||||||
| 31 | 07:56 | W 11 | 16.09 | Fair | CLR | 0 | 0 | 0% | 75.82 | 0.0 | |||||||
| 31 | 06:56 | W 9 | 16.09 | Fair | CLR | 0 | 0 | 0% | 75.79 | 0.0 | |||||||
| 31 | 05:56 | W 15 | 16.09 | Fair | CLR | 0 | 0 | 0% | 75.77 | 0.0 | |||||||
| 31 | 04:56 | W 9 | 16.09 | Fair | CLR | 0 | 0 | 0% | 75.72 | 0.0 | |||||||
| 31 | 03:56 | W 7 | 16.09 | Fair | CLR | 0 | 0 | 0% | 75.69 | 0.0 | |||||||
| 31 | 02:56 | W 11 | 16.09 | Fair | CLR | 0 | 0 | 0% | 75.67 | 0.0 | |||||||
| 31 | 01:56 | W 9 | 16.09 | Fair | CLR | 0 | 0 | 0% | 75.64 | 0.0 | |||||||
| 31 | 00:56 | W 9 | 16.09 | Fair | CLR | 0 | 0 | 0% | 75.59 | 0.0 | |||||||
| 30 | 23:56 | NW 7 | 16.09 | Fair | CLR | 0 | 0 | 0% | 75.57 | 0.0 | |||||||
| 30 | 22:56 | NW 6 | 16.09 | Fair | CLR | 0 | 0 | 0% | 75.54 | 0.0 | |||||||
| 30 | 21:56 | N 6 | 16.09 | Fair | CLR | 0 | 0 | 0% | 75.51 | 0.0 | |||||||
| 30 | 20:56 | N 7 | 16.09 | Fair | CLR | 0 | 0 | 0% | 75.49 | 0.0 | |||||||
| 30 | 19:56 | N 7 | 16.09 | Fair | CLR | 0 | 0 | 0% | 75.49 | 0.0 | |||||||
| 30 | 18:56 | NW 9 | 16.09 | Fair | CLR | 0 | 0 | 0% | 75.51 | 0.0 | |||||||
| 30 | 17:56 | W 7 | 16.09 | Overcast | OVC065 | 0 | 0 | 0% | 75.54 | 0.0 | |||||||
| 30 | 16:56 | W 13 | 16.09 | Partly Cloudy | SCT060 | 0 | 0 | 0% | 75.54 | 0.0 | |||||||
| 30 | 15:56 | Vrbl 11 G 26 | 16.09 | Overcast | FEW039 OVC060 | 0 | 0 | 0% | 75.59 | 0.0 | 0.13 | ||||||
| 30 | 14:56 | SW 19 G 30 | 16.09 | A Few Clouds | FEW060 | 0 | 0 | 0% | 75.57 | 0.0 | |||||||
| 30 | 13:56 | W 22 G 33 | 16.09 | Partly Cloudy | SCT060 | 0 | 0 | 0% | 75.57 | 0.0 | |||||||
| 30 | 12:56 | NW 9 | 16.09 | Overcast | BKN011 OVC017 | 0 | 0 | 0% | 75.57 | 0.0 | 0.13 | ||||||
| 30 | 11:56 | W 9 | 16.09 | Overcast | FEW090 OVC110 | 0 | 0 | 0% | 75.57 | 0.0 | |||||||
| 30 | 10:56 | Vrbl 11 | 16.09 | Light Rain | OVC034 | 0 | 0 | 0% | 75.51 | 0.0 | 0.13 | ||||||
| 30 | 09:56 | S 13 | 8.05 | Light Rain | FEW008 BKN014 OVC024 | 0 | 0 | 0% | 75.41 | 0.0 | 0.05 | 0.05 | |||||
| 30 | 08:56 | SE 11 | 4.83 | Unknown Precip | BKN005 OVC016 | 0 | 0 | 0% | 75.41 | 0.0 | |||||||
| 30 | 07:56 | E 13 | 12.87 | Unknown Precip | BKN018 OVC024 | 0 | 0 | 0% | 75.49 | 0.0 | |||||||
| 30 | 06:56 | E 13 | 16.09 | Unknown Precip | OVC023 | 0 | 0 | 0% | 75.51 | 0.0 | |||||||
| 30 | 05:56 | E 13 | 14.48 | Light Rain | BKN027 BKN041 OVC048 | 0 | 0 | 0% | 75.59 | 0.0 | |||||||
| 30 | 04:56 | E 11 | 16.09 | Overcast | OVC034 | 0 | 0 | 0% | 75.64 | 0.0 | |||||||
| 30 | 03:56 | SE 6 | 16.09 | Overcast | OVC022 | 0 | 0 | 0% | 75.69 | 0.0 | |||||||
| 30 | 02:56 | SE 9 | 16.09 | Overcast | BKN027 OVC037 | 0 | 0 | 0% | 75.74 | 0.0 | |||||||
| 30 | 01:56 | SE 11 | 16.09 | Overcast | OVC040 | 0 | 0 | 0% | 75.77 | 0.0 | |||||||
| 30 | 00:56 | Calm | 16.09 | Overcast | OVC044 | 0 | 0 | 0% | 75.79 | 0.0 | |||||||
| 29 | 23:56 | E 13 | 16.09 | Mostly Cloudy | BKN046 | 0 | 0 | 0% | 75.82 | 0.0 | |||||||
| 29 | 22:56 | SE 11 | 16.09 | Fair | CLR | 0 | 0 | 0% | 75.82 | 0.0 | |||||||
| 29 | 21:56 | E 7 | 16.09 | Fair | CLR | 0 | 0 | 0% | 75.84 | 0.0 | |||||||
| 29 | 20:56 | NE 6 | 16.09 | Fair | CLR | 0 | 0 | 0% | 75.87 | 0.0 | |||||||
| 29 | 19:56 | Calm | 16.09 | Fair | CLR | 0 | 0 | 0% | 75.9 | 0.0 | |||||||
| 29 | 18:56 | Calm | 16.09 | Fair | CLR | 0 | 0 | 0% | 75.9 | 0.0 | |||||||
| 29 | 17:56 | W 9 | 16.09 | Fair | CLR | 0 | 0 | 0% | 75.9 | 0.0 | |||||||
| 29 | 16:56 | Vrbl 6 | 16.09 | Fair | CLR | 0 | 0 | 0% | 75.9 | 0.0 | |||||||
| 29 | 15:56 | SW 13 | 16.09 | Fair | CLR | 0 | 0 | 0% | 75.92 | 0.0 | |||||||
| 29 | 14:56 | Vrbl 11 | 16.09 | Fair | CLR | 0 | 0 | 0% | 75.92 | 0.0 | |||||||
| 29 | 13:56 | Vrbl 9 | 16.09 | Fair | CLR | 0 | 0 | 0% | 75.9 | 0.0 | |||||||
| 29 | 12:56 | Vrbl 9 | 16.09 | Fair | CLR | 0 | 0 | 0% | 75.9 | 0.0 | |||||||
| 29 | 11:56 | Vrbl 9 | 16.09 | Fair | CLR | 0 | 0 | 0% | 75.87 | 0.0 | |||||||
| 29 | 10:56 | W 11 | 16.09 | Fair | CLR | 0 | 0 | 0% | 75.87 | 0.0 | |||||||
| 29 | 09:56 | W 19 | 16.09 | Fair | CLR | 0 | 0 | 0% | 75.82 | 0.0 | |||||||
| 29 | 08:56 | W 15 | 16.09 | Fair | CLR | 0 | 0 | 0% | 75.79 | 0.0 | |||||||
| 29 | 07:56 | W 11 | 16.09 | Fair | CLR | 0 | 0 | 0% | 75.77 | 0.0 | |||||||
| 29 | 06:56 | W 7 | 16.09 | Fair | CLR | 0 | 0 | 0% | 75.72 | 0.0 | |||||||
| 29 | 05:56 | Vrbl 7 | 16.09 | Fair | CLR | 0 | 0 | 0% | 75.67 | 0.0 | |||||||
| 29 | 04:56 | W 19 | 16.09 | Fair | CLR | 0 | 0 | 0% | 75.59 | 0.0 | |||||||
| 29 | 03:56 | NW 15 | 16.09 | Fair | CLR | 0 | 0 | 0% | 75.54 | 0.0 | |||||||
| 29 | 02:56 | Calm | 16.09 | Fair | CLR | 0 | 0 | 0% | 75.49 | 0.0 | |||||||
| 29 | 01:56 | NW 7 | 16.09 | Fair | CLR | 0 | 0 | 0% | 75.41 | 0.0 | |||||||
| 29 | 00:56 | NW 20 | 16.09 | Fair | CLR | 0 | 0 | 0% | 75.34 | 0.0 | |||||||
| 28 | 23:56 | W 15 | 16.09 | Fair | CLR | 0 | 0 | 0% | 75.26 | 0.0 | |||||||
| 28 | 22:56 | W 15 | 16.09 | Fair | CLR | 0 | 0 | 0% | 75.18 | 0.0 | |||||||
| 28 | 21:56 | NW 13 | 16.09 | Fair | CLR | 0 | 0 | 0% | 75.08 | 0.0 | |||||||
| 28 | 20:56 | NW 24 G 35 | 16.09 | Fair | CLR | 0 | 0 | 0% | 74.98 | 0.0 | |||||||
| Date | Time (akdt) | Wind (kph) | Vis. (km) | Weather | Sky Cond. | Air | Dwpt | Max. | Min. | Relative Humidity | Wind Chill (°C) | Heat Index (°C) | altimeter (cm) | sea level (mb) | 1 hr | 3 hr | 6 hr |
| 6 hour | |||||||||||||||||
| Temperature (ºC) | Pressure | Precipitation (cm) | |||||||||||||||